Regional Weather Roundup
Issued by NWS Charleston, SC

Current Version | Previous Version | Text Only | Print | Product List | Glossary On
Versions: 1 2 3 4 5 6 7 8 9 10 11 12 13 14 15 16 17 18 19 20 21 22 23 24 25 26 27 28 29 30 31 32 33 34 35 36 37 38 39 40 41 42 43 44 45 46 47 48 49 50
826 ASUS42 KCHS 070912 RWRCHS REGIONAL WEATHER ROUNDUP NATIONAL WEATHER SERVICE CHARLESTON SC 400 AM EST WED DEC 07 2016 NOTE: "FAIR" INDICATES FEW OR NO CLOUDS BELOW 12,000 FEET WITH NO SIGNIFICANT WEATHER AND/OR OBSTRUCTIONS TO VISIBILITY. NOT ALL STATIONS ARE QUALITY CONTROLLED. USE DATA WITH CAUTION... ESPECIALLY DEWPOINT OBSERVATIONS. SCZ027-030-031-034>040-042>050-071000- ...SOUTHEAST SOUTH CAROLINA... CITY SKY/WX TMP DP RH WIND PRES REMARKS N CHARLESTON CLOUDY 54 50 86 NW9 29.96R WATERFRONT PRK N/A 54 52 93 NW5 29.94R MOUNT PLEASANT NOT AVBL JOHNS ISLAND CLOUDY 55 54 94 NW6 29.96R PINOPOLIS N/A 52 52 100 NW13 29.88R MONCKS CORNER CLOUDY 50 48 93 NW5 29.96R SUMMERVILLE CLOUDY 54 54 100 CALM 29.97R BEAUFORT MCAS CLOUDY 54 52 93 NW5 29.97R BEAUFORT ARPT PTSUNNY 52 52 100 N5 29.96R HILTON HEAD IS PTCLDY 52 50 93 CALM 29.97R WALTERBORO CLOUDY 54 N/A N/A NW3 29.98R FOG ALLENDALE CLOUDY 54 54 100 NW5 29.96S FOG ...SOUTHERN MIDLANDS AND PEE DEE... CITY SKY/WX TMP DP RH WIND PRES REMARKS GEORGETOWN CLOUDY 50 48 93 NW9 29.96R KINGSTREE CLOUDY 48 45 87 NW5 29.97R ORANGEBURG CLOUDY 51 49 92 NW7 29.96S BARNWELL NOT AVBL AIKEN FOG 48 48 100 CALM 29.99R VSB 1 MANNING CLOUDY 48 46 93 NW3 29.97R COLUMBIA CLOUDY 50 48 93 SE3 29.96R SUMTER CLOUDY 48 45 89 NW3 29.95R FLORENCE CLOUDY 48 46 93 NW7 29.97R MYRTLE BEACH CLOUDY 52 45 76 NW13 29.96R N MYRTLE BEACH CLOUDY 49 47 93 N8 29.94R $$ GAZ063-065-086>088-099>101-113>116-118-119-134>141-150-071000- ...SOUTHEAST GEORGIA... CITY SKY/WX TMP DP RH WIND PRES REMARKS SAVANNAH ARPT PTCLDY 52 50 93 CALM 29.97R FOG HUNTER AAF CLEAR 52 52 100 CALM 29.94R FOG FORT STEWART MOCLDY 52 50 93 CALM 29.95R STATESBORO NOT AVBL SYLVANIA FOG N/A N/A N/A CALM 29.98R VSB 3/4 CLAXTON FOG N/A N/A N/A CALM 29.97S VSB 1 ...CSRA...CENTRAL AND FAR SOUTHEAST GEORGIA... CITY SKY/WX TMP DP RH WIND PRES REMARKS THOMSON N/A 49 49 100 CALM 30.00R VSB 3/4 AUGUSTA-BUSH FOG 50 48 93 CALM 29.96R VSB 1/4 AUGUSTA-DANIEL FOG 51 48 89 CALM 29.97R VSB 1/4 SWAINSBORO FAIR 52 52 100 CALM 29.98R VIDALIA CLOUDY 59 59 100 CALM 29.98R EASTMAN FAIR 53 53 99 CALM 30.01R HAZLEHURST PTSUNNY 57 57 100 CALM 29.97S ALMA PTCLDY 51 51 100 NW3 29.97S WAYCROSS MOCLDY 58 58 100 CALM 29.98R JESUP FAIR 52 52 100 CALM 29.98R BAXLEY CLOUDY 59 59 100 NW5 29.97S BRUNSWICK PTCLDY 54 54 100 CALM 29.98R SAINT SIMONS PTCLDY 58 55 90 NW3 29.97R $$ SCZ027-028-034-036>038-045-046-048>050-GAZ119-141-071000- ...LAKE AND SUPPLEMENTAL COASTAL OBSERVATIONS... STATION/POSITION TIME TEMP WIND PRES WAVE SWELL AIR SEA DIR/SP/G HT/PER HT/PER/DIR (UTC) (F) (DEG/KT/KT) (MB) (FT/S) (FT/S/D) WINYAH BAY 0745 51 320/ 5 1013.0 LAKE MURRAY 0820 49 280/ 4/ 8 1013.9 ACE BASIN NERRS 0745 53 330/ 2 1014.0 FORT PULASKI 0842 57 62 320/ 4/ 5 1014.7R SAPELO ISLAND 0800 57 30/ 3 1014.0 $$ ANZ835-935-AMZ111-154-330-350-352-354-370-450-454-472-071000- ...C-MAN AND BUOY OBSERVATIONS... STATION/POSITION TIME TEMP WIND PRES WAVE SWELL AIR SEA DIR/SP/G HT/PER HT/PER/DIR (UTC) (F) (DEG/KT/KT) (MB) (FT/S) (FT/S/D) BUOY 41004 0850 59 74 320/ 12/ 14 1013.4R 4/ 8 3/160/ 8 BUOY 41008 0850 63 65 360/ 6/ 8 1014.0R 2/ 6 2/160/ 6 FOLLY BEACH CMAN 0800 54 320/ 4/ 5 1014.3R CAPERS NEARSHORE 0808 54 60 330/ 10/ 12 1013.6R FRIPP NEARSHORE 0808 56 62 360/ 6/ 8 1013.8R STATION/POSITION TIME TEMP WIND PRES WAVE SWELL AIR SEA DIR/SP/G HT/PER HT/PER/DIR (UTC) (F) (DEG/KT/KT) (MB) (FT/S) (FT/S/D) 5E ST. MARYS GA 0900 66 N/A 2/ 6 FRYING PAN BUOY 0850 56 74 310/ 14/ 17 1013.0R 5/ 8 3/190/ 8 BUOY 41025 0850 56 74 330/ 23/ 29 1009.4R 8/ 9 5/140/ 9 CAPE LOOKOUT NC 0800 48 320/ 16/ 17 1010.8R BUOY 41002 0850 73 74 320/ 19/ 23 1010.5R 11/ 9 8/270/ 9 BUOY 41010 NOT AVBL ST AUGUSTINE FL 0900 60 67 280/ 5/ 6 1016.1R $$

USA.gov is the U.S. government's official web portal to all federal, state and local government web resources and services.